Location: Unspecified
(0.0000°N, 0.0000°E)
Time: 01:53:16
(UTC+00:00)

deb r/b Ablestar - Pass Details

Date: 24 December 2025
Orbit: 815 x 921 km, 66.9° (Epoch: 13 January)

Event Time Altitude Azimuth Distance (km) Brightness Sun altitude
Rises 18:45:06 0° 219° (SW) 3,530 ? -10.4°
Reaches altitude 10° 18:47:52 10° 228° (SW) 2,597 ? -11.0°
Maximum altitude 18:53:10 32° 290° (WNW) 1,519 ? -12.2°
Drops below altitude 10° 18:58:30 10° 351° (N) 2,604 ? -13.4°
Sets 19:01:17 0° 1° (N) 3,540 ? -14.1°
